DW8923 Weather Reports


Display with metric or nautical units.
time (UTC)temp
F
wind
direction
speed
MPH
gust
MPH
rain 1hr
in
rain 24hr
in
rain mn
in
humidity
%
barometer
mb
20260506043101 76 135 3.0 7.0 0.00 0.00 0.00 88 1006.4
20260506041605 76 121 4.0 8.0 0.00 0.00 0.00 88 1006.3
20260506040058 76 173 1.0 8.0 0.00 0.00 0.00 87 1006.1
20260506034614 76 126 1.0 4.0 0.00 0.00 0.00 86 1006.0
20260506033057 77 106 2.0 5.0 0.00 0.00 0.00 85 1005.8
20260506031606 77 145 2.0 6.0 0.00 0.00 0.00 84 1005.7
20260506030056 77 144 0.0 5.0 0.00 0.00 0.00 83 1005.4
20260506024613 77 153 0.0 5.0 0.00 0.00 0.00 83 1005.2
20260506023055 78 123 0.0 4.0 0.00 0.00 0.00 82 1005.0
20260506021554 78 166 0.0 4.0 0.00 0.00 0.00 81 1004.6
20260506020053 79 133 0.0 4.0 0.00 0.00 0.00 80 1004.5
20260506014553 79 128 0.0 4.0 0.00 0.00 0.00 79 1004.4
20260506013104 80 159 0.0 6.0 0.00 0.00 0.00 77 1004.3
20260506011604 80 139 0.0 7.0 0.00 0.00 0.00 75 1004.1
20260506010055 81 152 1.0 7.0 0.00 0.00 0.00 74 1004.0
20260506004549 82 136 2.0 5.0 0.00 0.00 0.00 73 1004.0
20260506003049 82 143 3.0 9.0 0.00 0.00 0.00 73 1004.1
20260506001548 82 136 1.0 5.0 0.00 0.00 0.00 72 1004.1
20260506000050 83 136 1.0 7.0 0.00 0.00 0.00 71 1004.1
20260505234547 83 177 2.0 6.0 0.00 0.00 0.00 70 1004.1
20260505233045 83 122 5.0 10.0 0.00 0.00 0.00 69 1004.0
20260505231544 83 120 4.0 9.0 0.00 0.00 0.00 69 1003.7
20260505230055 84 183 7.0 14.0 0.00 0.00 0.00 68 1003.7
20260505224546 84 175 6.0 11.0 0.00 0.00 0.00 68 1003.5
20260505223054 84 142 6.0 12.0 0.00 0.00 0.00 68 1003.7
20260505221541 84 123 6.0 12.0 0.00 0.00 0.00 68 1003.5
20260505220042 85 219 6.0 13.0 0.00 0.00 0.00 66 1003.6
20260505214537 85 202 6.0 10.0 0.00 0.00 0.00 67 1003.7
20260505213050 85 123 7.0 12.0 0.00 0.00 0.00 66 1003.8
20260505211533 85 173 5.0 10.0 0.00 0.00 0.00 67 1004.0
20260505210032 85 142 4.0 12.0 0.00 0.00 0.00 67 1004.4
20260505204530 86 165 7.0 12.0 0.00 0.00 0.00 66 1004.5
20260505203041 86 143 5.0 8.0 0.00 0.00 0.00 66 1004.5
20260505201525 85 263 5.0 15.0 0.00 0.00 0.00 64 1004.9
20260505200032 85 161 5.0 16.0 0.00 0.00 0.00 66 1005.0
20260505194519 84 151 5.0 15.0 0.00 0.00 0.00 67 1005.1
20260505193018 84 146 6.0 14.0 0.00 0.00 0.00 68 1005.2
20260505191515 84 161 6.0 10.0 0.00 0.00 0.00 67 1005.4
20260505190012 83 161 3.0 11.0 0.00 0.00 0.00 69 1005.6
20260505184517 82 180 4.0 10.0 0.00 0.00 0.00 70 1005.7
20260505183007 82 171 2.0 10.0 0.00 0.00 0.00 72 1006.1
20260505181503 80 199 3.0 9.0 0.00 0.00 0.00 75 1006.4
20260505180104 79 175 6.0 11.0 0.00 0.00 0.00 75 1006.4
20260505174559 78 126 3.0 9.0 0.00 0.00 0.00 77 1006.9
20260505173054 78 227 3.0 14.0 0.00 0.00 0.00 78 1006.9
20260505171550 76 155 3.0 9.0 0.00 0.00 0.00 81 1006.9
20260505170046 75 186 3.0 10.0 0.00 0.00 0.00 82 1007.0
20260505164556 75 192 3.0 12.0 0.00 0.00 0.00 83 1007.0
20260505163045 74 185 2.0 11.0 0.00 0.00 0.00 84 1007.1
20260505161540 74 231 2.0 6.0 0.00 0.00 0.00 85 1007.1
20260505153037 73 173 3.0 7.0 0.00 0.00 0.00 87 1006.9
20260505151524 72 122 3.0 7.0 0.00 0.00 0.00 88 1007.1
20260505124513 70 211 1.0 7.0 0.00 0.00 0.00 90 1005.9
20260505123012 70 146 4.0 11.0 0.00 0.00 0.00 90 1005.6
20260505121511 70 258 2.0 6.0 0.00 0.00 0.00 90 1005.4
20260505120010 70 165 2.0 7.0 0.00 0.00 0.00 89 1005.2
20260505114515 70 171 4.0 9.0 0.00 0.00 0.00 89 1005.0
20260505113008 70 150 2.0 8.0 0.00 0.00 0.00 89 1005.1
20260505111507 70 128 2.0 10.0 0.00 0.00 0.00 89 1005.0
20260505101604 70 176 2.0 10.0 0.00 0.00 0.00 89 1005.2
20260505100059 70 171 3.0 8.0 0.00 0.00 0.00 89 1005.5
20260505094606 70 165 2.0 9.0 0.00 0.00 0.00 88 1005.6
20260505093057 70 173 4.0 9.0 0.00 0.00 0.00 88 1005.7
20260505091600 70 142 4.0 8.0 0.00 0.00 0.00 88 1005.8
20260505090100 70 188 2.0 11.0 0.00 0.00 0.00 87 1005.9
20260505084553 70 126 2.0 8.0 0.00 0.00 0.00 87 1005.9
20260505083054 70 158 2.0 10.0 0.00 0.00 0.00 87 1005.8
20260505081558 70 179 3.0 8.0 0.00 0.00 0.00 87 1006.2
20260505080049 70 210 3.0 11.0 0.00 0.00 0.00 87 1006.3
20260505074604 70 134 4.0 12.0 0.00 0.00 0.00 87 1006.3
20260505073044 70 193 5.0 12.0 0.00 0.00 0.00 87 1006.4
20260505071542 71 114 3.0 12.0 0.00 0.00 0.00 86 1006.6
20260505070038 71 161 3.0 12.0 0.00 0.00 0.00 86 1006.9
20260505064537 71 128 4.0 14.0 0.00 0.00 0.00 86 1007.1
20260505063040 71 180 4.0 12.0 0.00 0.00 0.00 85 1007.0
20260505061540 71 184 4.0 16.0 0.00 0.00 0.00 85 1007.2
20260505060031 71 183 4.0 12.0 0.00 0.00 0.00 85 1007.3
20260505054536 71 132 4.0 12.0 0.00 0.00 0.00 85 1007.3
20260505053025 71 121 4.0 12.0 0.00 0.00 0.00 85 1007.1
20260505051523 71 205 4.0 12.0 0.00 0.00 0.00 85 1007.2